[ hide orbit diagram ]
For accurate long-term ephemerides, please instead use our Horizons system.This orbit viewer was implemented using two-body methods, and hence should not be used for determining accurate long-term trajectories (over several years or decades) or planetary encounter circumstances.
Orbital Elements at Epoch 2459000.5 (2020-May-31.0) TDB
Reference: JPL 25 (heliocentric ecliptic J2000)
Element | Value | Uncertainty (1-sigma) | Units |
e | .1146217563668725 | 4.7599e-08 | |
a | 2.999232772752169 | 1.6736e-08 | au |
q | 2.65545544458623 | 1.4371e-07 | au |
i | 10.24188716094711 | 5.1112e-06 | deg |
node | 342.6054925515733 | 2.396e-05 | deg |
peri | 44.58983825134723 | 2.9892e-05 | deg |
M | 248.7490392642945 | 1.9281e-05 | deg |
tp | 2459586.793333087326 (2022-Jan-07.29333309) | 0.00010379 | TDB |
period | 1897.202491696744 5.19 | 1.588e-05 4.348e-08 | d yr |
n | .1897530714700029 | 1.5883e-09 | deg/d |
Q | 3.343010100918108 | 1.8654e-08 | au |
|
| | Orbit Determination Parameters
Additional Information
|
[ show covariance matrix ]
Physical Parameter Table
Parameter |
Symbol |
Value |
Units |
Sigma |
Reference |
Notes |
absolute magnitude |
H |
12.7 |
|
n/a |
MPO263425 |
|
diameter |
diameter |
9.455 |
km |
0.163 |
urn:nasa:pds:neowise_diameters_albedos::2.0[mainbelt] (http://adsabs.harvard.edu/abs/2011ApJ...741...68M) |
|
rotation period |
rot_per |
21.0101 |
h |
n/a |
LCDB (Rev. 2020-October); Warner et al., 2009 |
Result based on less than full coverage, so that the period may be wrong by 30 percent or so. Published Reference List: [Pal, A.; Szakats, R.; Kiss, C.; Bodi, A.; et al. (2019) Ap. J. Supl. Ser. 247, id.26.] |
geometric albedo |
albedo |
0.180 |
|
0.029 |
urn:nasa:pds:neowise_diameters_albedos::2.0[mainbelt] (http://adsabs.harvard.edu/abs/2011ApJ...741...68M) |
|
|
8498 Ufa | Discovered 1990 Sept. 15 by L. V. Zhuravleva at the Crimean Astrophysical Observatory. |
The city of Ufa is a large industrial and cultural center in the south Urals. Founded in 1574, it is the capital of Bashkir, a republic in the Russian Federation. |
NOTE: some special characters may not display properly (any characters within {} are an attempt to place the proper accent above a character) |
Reference: 20000124/MPCPages.arc | Last Updated: 2013-03-29 |
|
[ show close-approach data ]
Alternate Designations
1990 RM17 = 1977 DL5 = 1982 DE2 = 1990 SW19 = 1990 UA12 |
|
|